Volver al catálogo

DELTA 1 DEB

ActivoLEO
NORAD 20012·DEBRIS·🇺🇸 United States

Lanzado Jul 29, 1976 desde Vandenberg Space Force Base

Loading…

Próximos Pases (próximas 24 horas)

TLE

ActualizadoSource: Space-Track

Época: Sep 13, 2026, 04:11 UTC

1 20012U 76077FM  26256.17470281  .00000703  00000-0  27364-2 0  9997
2 20012 102.1066 333.3596 0086041 175.8541 212.9044 12.92722129602316

Sigue DELTA 1 DEB en tiempo real con AllMySat

Download on the App Store